Location: Amsterdam
(30.7274°N, 84.4357°W)
Time: 02:57:10
(UTC+00:00)

Courier 1B Rocket - Pass Details

Date: 09 February 2026
Orbit: 920 x 1201 km, 28.2° (Epoch: 7 March)

Event Time Altitude Azimuth Distance (km) Brightness Sun altitude
Rises 11:10:24 0° 266° (W) 4,077 - -16.2°
Reaches altitude 10° 11:14:35 10° 246° (WSW) 3,124 - -15.3°
Exits shadow 11:15:16 12° 241° (WSW) 3,010 7.1 -15.1°
Maximum altitude 11:18:54 16° 212° (SSW) 2,706 7.1 -14.4°
Drops below altitude 10° 11:23:11 10° 178° (S) 3,102 7.8 -13.5°
Sets 11:27:21 0° 157° (SSE) 4,033 8.7 -12.6°
